Location: Friedingen
(47.7855°N, 8.8771°E)
Time: 06:13:33
(UTC+00:00)

Daily predictions for brighter satellites

Satellite Brightness Start Highest point End
(mag) Time Altitude Azimuth Time Altitude Azimuth Time Altitude Azimuth
Cosmos 1818 3.6 18:26:56 10° SSW 18:32:18 68° ESE 18:37:44 10° NE
CZ-4C R/B 4.4 18:30:10 10° NW 18:34:58 22° N 18:40:23 10° ENE
Cosmos 1602 Rocket 4.5 18:32:05 10° NNW 18:36:25 55° W 18:40:41 10° S
Cosmos 1603 3.8 18:31:56 10° SSW 18:37:34 85° WNW 18:43:13 10° NNE
NOSS 3-3 (A) 4.2 18:32:15 10° SW 18:38:11 80° NW 18:44:57 10° NE
NOSS 3-3 (C) 4.2 18:32:21 10° SW 18:38:17 80° NW 18:45:03 10° NE
ATLAS 5 CENTAUR R/B 2.4 18:36:41 10° S 18:40:14 28° ESE 18:44:06 10° ENE
Cosmos 2058 Rocket 4.1 18:36:46 10° SE 18:40:30 26° E 18:44:15 10° NNE
Cosmos 2184 Rocket 4.0 18:35:14 10° N 18:41:33 72° E 18:47:44 10° SSE
STARLINK-52 4.4 18:40:03 10° S 18:42:32 21° SE 18:45:00 10° E
Cosmos 1726 Rocket 3.9 18:41:36 10° SSE 18:45:46 43° E 18:50:00 10° NNE
Aureole 1 Rocket 4.2 18:42:12 10° S 18:49:23 52° ESE 18:55:04 10° NNE
FREGAT/IRIS 2.2 18:48:15 10° SSE 18:50:58 76° ENE 18:53:42 10° N
Meteor 1-16 Rocket 4.1 18:45:38 10° S 18:51:01 73° E 18:56:38 10° NNE
SJ-6B 3.0 18:47:08 10° SSE 18:51:11 58° ENE 18:55:15 10° N
STARLINK-1240 4.5 18:47:29 10° WNW 18:51:28 43° N 18:55:27 10° E
Cosmos 1943 Rocket 4.1 18:47:29 10° NW 18:52:17 31° WSW 18:57:06 10° SSW
Cosmos 1825 Rocket 3.5 18:48:07 10° N 18:52:32 87° E 18:56:53 10° S
Cosmos 921 Rocket 3.6 18:49:42 10° N 18:53:35 36° ENE 18:57:17 11° SE
H-2A R/B 2.1 18:49:58 10° SSE 18:55:10 89° WSW 19:00:16 10° NNW
STARLINK-1216 4.4 18:52:29 10° WNW 18:56:29 44° N 19:00:26 10° E
Cosmos 1461 3.2 18:52:51 10° NNW 18:57:22 68° NE 19:01:46 11° SE
Resurs 01 Rocket 2.7 18:54:20 11° ESE 18:57:54 28° ENE 19:01:38 10° N
USA 234 4.4 18:54:31 10° E 18:58:48 18° ESE 19:03:05 10° SSE
Cosmos 2228 2.9 18:56:16 10° S 19:00:33 72° E 19:04:54 10° NNE
Nadezhda 1 Rocket 4.1 18:54:24 10° S 19:00:40 62° E 19:06:55 10° NNE
ATLAS 2AS CENTAUR R/B 2.9 18:53:21 10° NW 19:01:02 86° SW 19:08:03 10° SE
STARLINK-1237 4.4 18:57:27 10° WNW 19:01:28 45° NNE 19:05:12 11° E
SeaSat 1 3.1 18:56:41 10° NNE 19:01:34 62° WNW 19:06:25 10° SW
Cosmos 1300 4.0 19:00:26 11° SE 19:03:05 21° E 19:06:02 10° NE
CZ-2C R/B 3.0 18:59:08 10° SSE 19:03:59 82° WSW 19:08:46 10° NNW
Cosmos 2154 Rocket 4.0 18:58:00 10° N 19:04:22 70° E 19:10:39 10° SSE
Cosmos 2369 Rocket 3.9 19:00:46 10° NW 19:05:46 32° WSW 19:10:41 10° SSW
STARLINK-1202 4.3 19:02:28 10° WNW 19:06:30 47° NNE 19:10:01 13° E
Cosmos 1758 Rocket 4.3 19:02:32 10° NNW 19:06:47 56° W 19:10:59 10° S
USA 186 2.2 19:04:03 10° S 19:07:20 64° W 19:10:28 10° NNW
Ariane Rocket 3.6 19:05:19 10° S 19:10:18 58° WSW 19:15:19 10° NNW
Cosmos 1140 Rocket 3.6 19:06:30 10° S 19:11:29 50° ESE 19:16:28 10° NNE
BREEZE M DEB (TANK) 4.1 19:00:41 10° SW 19:11:35 52° SSE 19:14:50 13° E
SL-4 R/B 1.6 19:09:57 10° WSW 19:13:20 76° NNW 19:16:48 10° ENE
Cosmos 1953 Rocket 3.7 19:10:25 10° N 19:14:55 81° W 19:19:24 10° S
Cosmos 1703 3.6 19:11:52 10° NNW 19:15:50 68° W 19:19:45 10° S
Cosmos 1606 Rocket 3.8 19:11:30 10° SSW 19:15:55 75° W 19:20:25 10° N
STARLINK-1234 2.7 19:13:27 10° WNW 19:16:26 86° NNE 19:18:03 24° ESE
STARLINK-1246 4.2 19:12:25 10° WNW 19:16:28 50° NNE 19:19:33 16° E
Cosmos 2058 4.4 19:13:28 10° NNE 19:16:31 20° ENE 19:17:52 17° E
STARLINK-1209 2.6 19:14:04 10° WNW 19:17:03 89° SW 19:18:37 25° ESE
Cosmos 1340 Rocket 2.8 19:13:16 10° S 19:17:15 59° E 19:21:13 10° NNE
Cosmos 1328 4.2 19:15:31 10° NNW 19:19:30 64° W 19:23:27 10° S
STARLINK-1203 4.1 19:16:19 10° WNW 19:20:28 53° NNE 19:23:23 18° E
STARLINK-1233 2.9 19:17:25 10° WNW 19:20:33 73° NNE 19:22:13 25° ESE
STARLINK-1212 2.9 19:17:52 10° WNW 19:21:00 74° NNE 19:22:37 26° ESE
STARLINK-1105 2.9 19:18:18 10° WNW 19:21:27 74° NNE 19:23:04 26° ESE
STARLINK-1224 4.2 19:17:25 10° WNW 19:21:29 51° NNE 19:24:21 18° E
Cosmos 614 Rocket 4.0 19:16:22 10° SSW 19:21:36 85° WNW 19:26:51 10° NNE
Cosmos 1190 Rocket 4.0 19:16:22 10° S 19:21:38 70° ESE 19:26:54 10° NNE
STARLINK-1206 2.9 19:18:48 10° WNW 19:21:55 75° NNE 19:23:29 26° ESE
STARLINK-1247 2.9 19:19:15 10° WNW 19:22:22 75° NNE 19:23:55 27° ESE
STARLINK-1227 2.9 19:19:39 10° WNW 19:22:48 76° NNE 19:24:22 27° ESE
STARLINK-1218 2.8 19:20:08 10° WNW 19:23:16 76° NNE 19:24:47 27° ESE
STARLINK-1226 2.8 19:20:34 10° WNW 19:23:43 77° NNE 19:25:13 28° ESE
Cosmos 1908 3.5 19:20:01 10° SSW 19:23:51 73° W 19:27:46 10° N
STARLINK-1254 2.9 19:21:00 10° WNW 19:24:10 77° NNE 19:25:40 28° ESE
STARLINK-1215 2.8 19:21:30 10° WNW 19:24:38 78° NNE 19:26:06 28° ESE
STARLINK-1231 2.8 19:21:57 10° WNW 19:25:04 78° NNE 19:26:31 29° ESE
ERBS 3.5 19:21:58 10° NW 19:25:04 33° NNE 19:26:51 20° ENE
STARLINK-1232 2.8 19:22:51 10° WNW 19:25:59 80° NNE 19:27:24 30° ESE
STARLINK-1217 2.8 19:23:16 10° WNW 19:26:25 80° NNE 19:27:49 30° ESE
STARLINK-1225 4.1 19:22:25 10° WNW 19:26:30 53° NNE 19:29:09 20° E
STARLINK-1208 2.8 19:23:43 10° WNW 19:26:53 81° NNE 19:28:17 30° ESE
STARLINK-1229 2.8 19:24:12 10° WNW 19:27:20 81° NNE 19:28:41 31° ESE
STARLINK-1271 2.8 19:24:39 10° WNW 19:27:46 82° NNE 19:29:07 31° ESE
STARLINK-1270 2.8 19:25:06 10° WNW 19:28:14 82° NNE 19:29:33 31° ESE
STARLINK-1154 2.8 19:25:33 10° WNW 19:28:40 83° NNE 19:29:59 32° ESE
STARLINK-1197 2.8 19:26:28 10° WNW 19:29:36 84° NNE 19:30:52 33° ESE
Cosmos 1726 4.2 19:26:20 10° SW 19:29:40 30° WNW 19:33:01 10° N
STARLINK-1189 2.8 19:26:54 10° WNW 19:30:02 85° NNE 19:31:17 33° ESE
STARLINK-1198 2.8 19:27:22 10° WNW 19:30:30 85° NNE 19:31:44 33° ESE
STARLINK-1188 2.8 19:27:47 10° WNW 19:30:55 86° NNE 19:32:08 34° ESE
STARLINK-1230 4.0 19:27:23 10° WNW 19:31:29 56° NNE 19:33:55 22° E
STARLINK-1235 2.8 19:28:28 10° WNW 19:31:37 78° SSW 19:32:51 34° SE
STARLINK-1187 2.8 19:28:53 10° WNW 19:32:03 85° SSW 19:33:16 34° ESE
SL-24 R/B 3.7 19:28:04 10° NNE 19:32:10 83° ESE 19:35:52 10° SSW
Cosmos 1943 4.5 19:27:12 10° SW 19:32:37 44° NW 19:38:04 10° NNE
STARLINK-67 3.4 19:30:14 10° WNW 19:32:38 36° SW 19:33:19 29° S
STARLINK-1199 2.8 19:29:44 10° WNW 19:32:54 88° NE 19:34:04 35° ESE
Cosmos 1076 Rocket 4.5 19:29:10 10° N 19:32:57 29° ENE 19:34:16 24° ESE
DMSP B5D2-2 4.0 19:28:02 10° NNE 19:33:15 63° ESE 19:38:26 10° S
STARLINK-1191 2.8 19:30:12 10° WNW 19:33:21 89° NE 19:34:30 36° ESE
STARLINK-1210 2.8 19:30:38 10° WNW 19:33:48 89° NNE 19:34:56 36° ESE
STARLINK-1221 2.8 19:31:07 10° WNW 19:34:16 90° WNW 19:35:23 37° ESE
STARLINK-1219 2.8 19:31:32 10° WNW 19:34:42 89° WSW 19:35:49 37° ESE
STARLINK-1222 2.8 19:32:00 10° WNW 19:35:10 89° SSW 19:36:15 38° ESE
STARLINK-1211 2.8 19:32:28 10° WNW 19:35:37 88° SSW 19:36:42 38° ESE
Abrixas rocket 2.0 19:33:07 10° W 19:36:03 61° SSW 19:36:50 41° SE
STARLINK-1214 2.8 19:32:54 10° WNW 19:36:03 88° SSW 19:37:06 39° ESE
STARLINK-1243 4.0 19:32:21 10° WNW 19:36:28 58° NNE 19:38:42 25° E
STARLINK-1245 2.8 19:33:23 10° WNW 19:36:31 87° SSW 19:37:32 40° ESE
STARLINK-1238 2.8 19:33:48 10° WNW 19:36:58 86° SSW 19:37:59 40° ESE
BREEZE-M DEB (TANK) 3.6 19:31:57 10° WNW 19:37:30 55° SSW 19:38:39 31° SSE
STARLINK-1205 2.8 19:34:45 10° WNW 19:37:53 85° SSW 19:38:51 41° ESE
STARLINK-29 2.8 19:34:45 10° SW 19:37:56 67° SSE 19:39:26 28° ENE
STARLINK-1204 2.8 19:35:12 10° WNW 19:38:20 85° SSW 19:39:16 42° SE
MetOp-A 4.2 19:34:55 10° S 19:40:16 79° WSW 19:45:40 10° NNW
STARLINK-1236 3.9 19:37:20 10° WNW 19:41:27 61° NNE 19:43:28 28° E
CZ-2C R/B 2.5 19:37:22 10° NNE 19:42:32 65° ESE 19:47:42 10° S
STARLINK-60 3.4 19:39:40 10° WSW 19:42:55 63° NNW 19:45:10 19° NE
SPOT 5 4.3 19:43:20 16° ENE 19:44:03 17° ENE 19:46:48 10° NNE
Cosmos 1697 Rocket 4.1 19:41:12 10° N 19:45:48 24° NE 19:48:23 18° E
Terra 3.6 19:46:43 15° ENE 19:47:42 16° ENE 19:50:32 10° NNE
Cosmos 407 Rocket 4.0 19:43:13 10° SW 19:48:18 62° WNW 19:53:25 10° NNE
ERS-1 Rocket 4.2 19:47:11 22° E 19:48:38 26° ENE 19:52:44 10° N
ARGOS 4.5 19:43:54 10° SSW 19:48:55 39° W 19:53:57 10° NNW
Cosmos 676 Rocket 3.9 19:45:21 10° SSW 19:50:37 75° ESE 19:55:53 10° NNE
STARLINK-1269 3.8 19:47:17 10° WNW 19:51:25 67° NNE 19:53:02 35° E
Iridium 2 3.9 19:50:40 40° SE 19:51:27 47° E 19:55:08 10° NNE
Cosmos 192 4.5 19:51:26 10° NNW 19:56:21 59° ENE 19:58:14 35° SE
STARLINK-1200 3.7 19:52:15 10° WNW 19:56:24 70° NNE 19:57:48 39° E
CZ-2C R/B 4.4 19:53:55 10° N 19:58:33 58° WNW 20:03:05 10° SSW
SPOT 3 Rocket 4.3 19:54:06 10° S 19:59:10 51° W 20:04:15 10° NNW
STARLINK-1192 3.6 19:57:15 10° WNW 20:01:25 74° NNE 20:02:36 45° E
Resurs 1-3 4.3 19:58:05 14° S 20:01:39 52° W 20:05:58 10° NNW
COSMOS 2455 3.2 20:00:00 10° NW 20:05:56 60° WSW 20:09:32 24° S
STARLINK-1201 3.2 20:03:00 10° WNW 20:06:14 55° SSW 20:06:17 55° SSW
STARLINK-1244 3.6 20:02:14 10° WNW 20:06:24 78° NNE 20:07:23 50° E
STARLINK-1228 4.2 20:05:10 10° W 20:07:12 27° WSW 20:07:12 27° WSW
Cosmos 1656 4.0 20:03:43 10° NNW 20:09:17 51° ENE 20:11:09 36° ESE
STPSAT 2 (USA 217) 4.4 20:06:32 10° SSW 20:10:59 71° ESE 20:15:29 10° NNE
STARLINK-1138 3.5 20:07:13 10° WNW 20:11:23 82° NNE 20:12:10 57° ESE
Cosmos 1455 4.0 20:13:24 19° NE 20:13:24 19° NE 20:14:58 10° NNE
MOS 1 Rocket 3.9 20:06:26 10° N 20:11:48 69° WNW 20:17:12 10° SSW
Cosmos 1954 Rocket 4.1 20:07:44 10° SSW 20:12:59 77° WNW 20:18:13 10° NNE
FALCON 9 DEB 3.2 20:10:15 10° WSW 20:13:44 77° NNW 20:14:16 60° NE
IGS 5A 3.6 20:13:40 50° E 20:14:01 51° ENE 20:18:04 10° N
Cosmos 1980 Rocket 3.7 20:11:02 10° N 20:15:29 23° NE 20:17:17 20° ENE
STARLINK-1143 3.5 20:12:11 10° WNW 20:16:21 87° NNE 20:16:57 65° ESE
Cosmos 1892 2.7 20:13:11 10° N 20:17:04 63° E 20:17:06 62° E
Dummy Sat-02 4.5 20:17:21 74° SSE 20:17:37 81° E 20:21:24 10° N
STARLINK-52 3.2 20:15:12 10° WSW 20:18:09 66° WNW 20:18:09 66° WNW
ATLAS CENTAUR R/B 2.8 20:15:53 10° NNW 20:19:04 23° NE 20:19:27 23° NE
Cosmos 1741 Rocket 4.1 20:18:18 44° SE 20:19:23 51° ESE 20:24:33 10° NNE
STARLINK-1241 3.4 20:17:13 10° WNW 20:21:23 88° SSW 20:21:46 73° SE
BREEZE M DEB (TANK) 3.2 20:18:02 10° SW 20:21:35 66° SSE 20:32:33 10° ENE
SPOT 1/Viking Rocket 3.6 20:21:21 47° SE 20:22:39 61° ENE 20:27:49 10° N
CARTOSAT-1 4.2 20:22:54 38° ENE 20:22:54 38° ENE 20:26:51 10° N
Cosmos 1825 3.6 20:20:57 10° N 20:23:21 26° NE 20:23:21 26° NE
ATLAS 5 CENTAUR R/B 2.8 20:20:32 10° WSW 20:24:36 43° NW 20:29:15 10° NNE
CZ-4C R/B 3.7 20:18:59 10° NW 20:25:23 41° NE 20:29:18 25° E
STARLINK-1239 3.4 20:22:10 10° WNW 20:26:19 83° SSW 20:26:31 79° SSE
Cosmos 2208 Rocket 4.4 20:22:23 10° NNW 20:27:24 45° ENE 20:28:09 42° E
Cosmos 1763 Rocket 3.4 20:24:44 10° NNW 20:29:57 78° ENE 20:30:58 57° SE
STARLINK-1240 3.5 20:27:09 10° WNW 20:31:18 78° SSW 20:31:18 78° SSW
Okean 3 Rocket 4.1 20:29:41 10° N 20:33:36 45° ENE 20:33:36 45° ENE
Resurs 01 Rocket 3.0 20:31:53 20° SSW 20:34:16 35° W 20:38:20 10° NNW
Cosmos 1766 Rocket 4.3 20:31:35 10° N 20:35:19 39° NE 20:35:19 39° NE
STARLINK-1216 3.6 20:32:08 10° WNW 20:36:05 72° WSW 20:36:05 72° WSW
Cosmos 2218 Rocket 4.1 20:30:15 10° NNW 20:36:27 71° W 20:39:41 30° S
Cosmos 540 Rocket 3.8 20:31:28 10° NNW 20:36:28 46° ENE 20:36:54 45° ENE
Meteor 2-12 Rocket 4.3 20:32:16 10° N 20:38:24 88° W 20:40:32 43° S
Cosmos 1300 4.5 20:35:18 11° SW 20:38:34 31° WNW 20:42:00 10° N
Cosmos 1174 4.3 20:36:43 10° NW 20:40:53 65° WSW 20:41:25 60° SSW
STARLINK-1237 3.8 20:37:06 10° WNW 20:40:51 64° WSW 20:40:51 64° WSW
Iridium 4 Rocket 3.1 20:37:21 10° N 20:41:32 68° W 20:41:55 63° SW
Cosmos 1814 Rocket 4.3 20:36:56 10° NNW 20:42:11 51° ENE 20:42:40 50° E
USA 234 3.1 20:36:11 10° ENE 20:42:42 64° SE 20:49:10 10° SW
Landsat 7 3.8 20:42:03 63° S 20:42:46 80° WSW 20:47:34 10° NNW
Cosmos 2278 4.3 20:39:36 10° NNW 20:44:57 40° NE 20:45:43 38° ENE
Cosmos 2082 Rocket 4.0 20:49:07 17° ENE 20:49:07 17° ENE 20:50:49 10° NE
STARLINK-1202 4.0 20:42:07 10° WNW 20:45:40 56° WSW 20:45:40 56° WSW
Cosmos 1812 Rocket 4.1 20:46:09 38° SW 20:47:27 54° WNW 20:51:43 10° N
RESURS DK-1 2.7 20:48:13 10° NNW 20:51:45 61° N 20:51:45 61° N
SL-4 R/B 3.0 20:49:54 10° WNW 20:52:28 36° NW 20:52:28 36° NW
Cosmos 2058 3.9 20:49:44 10° NNW 20:53:37 41° W 20:54:04 39° WSW
Cosmos 1833 Rocket 3.5 20:56:29 36° ENE 20:56:29 36° ENE 21:00:10 10° NE
STARLINK-1246 4.5 20:52:05 10° WNW 20:55:12 44° W 20:55:12 44° W
ASTEX 1 4.4 20:57:33 35° NE 20:57:33 35° NE 21:01:18 10° N
USA 32 3.9 20:53:06 10° N 20:58:22 87° W 20:58:49 76° S
Meteor 2-10 Rocket 3.4 20:58:38 78° ESE 20:58:41 78° E 21:04:08 10° NNE
Cosmos 2151 3.3 20:55:12 10° N 20:58:42 61° NNW 20:58:42 61° NNW
Spot 2 Rocket 4.4 20:59:40 35° SW 21:01:07 43° W 21:06:00 10° NNW
ERBS 4.5 20:58:14 10° WNW 20:59:49 23° WNW 20:59:49 23° WNW
Cosmos 1850 Rocket 4.2 21:02:15 41° SW 21:04:01 68° WNW 21:09:13 10° NNE
Cosmos 841 Rocket 3.4 21:02:55 10° NNW 21:08:12 89° NNW 21:08:12 89° NNW
COSMOS 2406 3.1 21:08:16 60° SW 21:09:23 86° WNW 21:15:08 10° NNE
Cosmos 1408 4.2 21:09:24 10° NNW 21:11:46 34° NW 21:11:46 34° NW
Nadezhda 3 Rocket 3.9 21:15:55 71° S 21:16:39 86° E 21:22:58 10° N
Cosmos 1535 Rocket 4.5 21:15:09 10° N 21:21:17 64° ENE 21:21:17 64° ENE
SPOT 5 3.4 21:22:33 49° NW 21:22:33 49° NW 21:26:00 10° NNW
Terra 2.2 21:25:36 62° NW 21:25:36 62° NW 21:29:38 10° NNW
ERS-1 Rocket 3.6 21:27:10 48° W 21:27:10 48° W 21:32:03 10° NNW
Cosmos 2369 3.7 21:21:51 10° NNW 21:27:19 77° W 21:27:19 77° W
Cosmos 1697 Rocket 2.7 21:24:41 10° NNW 21:30:07 72° W 21:30:07 72° W
Cosmos-2242 4.2 21:33:27 40° NW 21:33:27 40° NW 21:36:57 10° N
Cosmos 1821 Rocket 4.4 21:39:00 10° NNW 21:45:13 56° W 21:45:57 53° WSW
Cosmos 1934 Rocket 3.9 21:41:57 10° N 21:48:02 81° WNW 21:48:02 81° WNW
SL-16 R/B 3.3 21:45:14 10° NNW 21:50:12 34° NE 21:50:12 34° NE
Cosmos 2360 Rocket 4.1 21:48:03 10° N 21:52:08 20° NE 21:53:00 19° NE
Cosmos 2322 Rocket 3.4 21:53:00 10° NNW 21:57:48 33° NE 21:57:48 33° NE
ATLAS CENTAUR R/B 3.8 21:54:31 10° NW 21:55:38 18° NW 21:55:38 18° NW
Mayak 0.8 21:54:39 10° N 21:56:22 24° N 21:56:22 24° N
Cosmos 1980 Rocket 2.6 21:54:28 10° NNW 21:59:03 59° NW 21:59:03 59° NW
Meteor 2-3 Rocket 4.2 21:58:12 10° NNW 22:03:11 55° WNW 22:03:11 55° WNW
Cosmos 1605 Rocket 4.1 21:58:28 10° N 22:03:58 72° N 22:03:58 72° N
CZ-4C R/B 2.9 22:07:22 10° NW 22:14:28 73° WSW 22:14:28 73° WSW
USA 234 3.7 22:19:18 10° NE 22:25:41 57° NNW 22:32:03 10° W
Cosmos 2082 Rocket 2.9 22:30:55 49° NNW 22:30:55 49° NNW 22:35:32 10° NNE
Cosmos 1833 Rocket 4.0 22:38:06 33° WNW 22:38:53 34° NW 22:44:01 10° NNE
Cosmos 2344 4.4 22:36:57 10° NW 22:46:35 70° WSW 22:48:33 62° S
Cosmos 2219 Rocket 4.2 22:45:51 10° N 22:49:57 20° NE 22:50:59 19° ENE
Cosmos 1607 4.5 22:55:17 55° N 22:55:17 55° N 23:00:26 10° NE
COSMOS 2428 4.3 23:10:35 10° N 23:15:22 27° NE 23:15:49 26° NE
SL-16 R/B 4.5 23:17:35 18° ENE 23:19:32 20° NE 23:23:52 10° N
Cosmos 1725 Rocket 4.5 23:27:09 10° N 23:32:04 57° N 23:32:04 57° N
SL-16 R/B 3.8 23:29:16 10° NW 23:32:03 28° NW 23:32:03 28° NW
Cosmos 2360 Rocket 3.3 23:31:18 10° NNW 23:34:45 39° NNW 23:34:45 39° NNW
Cosmos 2322 Rocket 3.8 23:36:56 10° NW 23:39:36 27° NW 23:39:36 27° NW
Cosmos 2123 Rocket 4.5 23:45:08 56° N 23:45:08 56° N 23:49:55 10° N
CZ-2D R/B 4.4 23:40:48 10° NE 23:43:03 15° ENE 23:43:03 15° ENE
MOS 1-B Rocket 4.4 23:37:59 10° NNE 23:43:26 66° NNW 23:43:26 66° NNW
SJ 16-02 4.1 23:52:41 13° NE 23:52:41 13° NE 23:53:24 10° NE
